Find Starlink 31018

NORAD ID: 58635 Int'l Des: 2023-203 Owner: SPXS Country: US Constellation: starlink operational
LEOCIRCULAR

Current View

Loading 3D Globe...

About Starlink 31018

Starlink 31018 (NORAD 58635) is a starlink constellation satellite (v2 mini) launched Dec 23, 2023 by SPXS of US. It operates in LEO, CIRCULAR orbit with a mass of 730.00 kg.

Upcoming Passes

Passes for default location (London). Set your location on the main map for personalized predictions.

Altitude History

Loading altitude history...

Two-Line Element Set

1 58635U 23203T 26235.20080923 .00000841 00000-0 40079-4 0 9996
2 58635 43.0000 207.0267 0001125 264.7823 95.2900 15.27575569150251
Epoch: Aug 23, 2026 • Age: 28 hours

Current Status

Altitude 487.6 km
Apogee / Perigee N/A
Velocity 7.62 km/s
Sub-Earth Point -21.63°S, 68.88°E
Launch Date Dec 23, 2023
Age 2.6 years
Type internet

Technical Details

Classification Payload
Mass 730.00 kg
Dry Mass 700.00 kg
Total Mass 730.00 kg
Length 0.30 m
Diameter 4.10 m
Span 29.00 m
Shape Box + pan
Manufacturer SPXS
Bus Type Starlink V2M
Phase Status In Orbit
Owner/State SPXS/US

Most Searched